• In Hungary
  • List of Countries
  • For 7 days
  • Water Temperature
  • Satellite Maps
  • Weather Map
  • News
  • Weather Widgets
  • user-avatar
    Login

    Hourly Weather Arhus

    Today, 20 September, Thursday

    Time Temperature Precipitation Wind Pressure Humidity
    00:00 +17°C° 0.1 mm 8 mps 756 mmHg 82%
    01:00 +16°C° 0 mm 7 mps 755 mmHg 85%
    02:00 +16°C° 0 mm 7 mps 755 mmHg 85%
    03:00 +15°C° 0 mm 6 mps 755 mmHg 84%
    04:00 +14°C° 0 mm 6 mps 756 mmHg 84%
    05:00 +14°C° 0 mm 6 mps 756 mmHg 84%
    06:00 +14°C° 0 mm 6 mps 756 mmHg 85%
    07:00 +14°C° 0 mm 5 mps 756 mmHg 86%
    08:00 +15°C° 0.1 mm 5 mps 756 mmHg 82%
    09:00 +15°C° 0.1 mm 6 mps 756 mmHg 79%
    10:00 +16°C° 0.1 mm 6 mps 756 mmHg 76%
    11:00 +15°C° 0.3 mm 6 mps 756 mmHg 79%
    12:00 +14°C° 0.3 mm 6 mps 756 mmHg 83%
    13:00 +14°C° 0.3 mm 5 mps 756 mmHg 86%
    14:00 +14°C° 0.3 mm 5 mps 756 mmHg 87%
    15:00 +13°C° 0.3 mm 4 mps 756 mmHg 88%
    16:00 +13°C° 0.3 mm 3 mps 756 mmHg 89%
    17:00 +13°C° 0.1 mm 3 mps 756 mmHg 90%
    18:00 +13°C° 0.1 mm 3 mps 755 mmHg 92%
    19:00 +13°C° 0.1 mm 3 mps 755 mmHg 93%
    20:00 +13°C° 0 mm 4 mps 754 mmHg 93%
    21:00 +14°C° 0 mm 5 mps 754 mmHg 92%
    22:00 +15°C° 0 mm 7 mps 753 mmHg 92%
    23:00 +16°C° 0 mm 7 mps 752 mmHg 90%

    Tomorrow, 21 September, Friday

    Time Temperature Precipitation Wind Pressure Humidity
    00:00 +16°C° 0 mm 8 mps 751 mmHg 87%
    01:00 +16°C° 0 mm 8 mps 750 mmHg 85%
    02:00 +16°C° 0 mm 8 mps 750 mmHg 84%
    03:00 +16°C° 0 mm 8 mps 749 mmHg 83%
    04:00 +16°C° 0 mm 8 mps 748 mmHg 82%
    05:00 +17°C° 0 mm 9 mps 747 mmHg 80%
    06:00 +17°C° 0 mm 9 mps 746 mmHg 79%
    07:00 +17°C° 0 mm 9 mps 745 mmHg 77%
    08:00 +17°C° 0.1 mm 10 mps 745 mmHg 75%
    09:00 +18°C° 0.1 mm 11 mps 744 mmHg 72%
    10:00 +18°C° 0.1 mm 12 mps 743 mmHg 70%
    11:00 +17°C° 0.6 mm 13 mps 743 mmHg 68%
    12:00 +15°C° 0.6 mm 13 mps 743 mmHg 66%
    13:00 +15°C° 0.6 mm 14 mps 742 mmHg 63%
    14:00 +14°C° 0 mm 14 mps 743 mmHg 63%
    15:00 +13°C° 0 mm 14 mps 743 mmHg 63%
    16:00 +12°C° 0 mm 14 mps 744 mmHg 63%
    17:00 +12°C° 0.2 mm 14 mps 744 mmHg 67%
    18:00 +10°C° 0.2 mm 13 mps 745 mmHg 72%
    19:00 +9°C° 0.2 mm 13 mps 745 mmHg 77%
    20:00 +9°C° 0.2 mm 12 mps 746 mmHg 76%
    21:00 +9°C° 0.2 mm 11 mps 747 mmHg 75%
    22:00 +9°C° 0.2 mm 10 mps 747 mmHg 75%
    23:00 +8°C° 0 mm 10 mps 748 mmHg 74%

    Day after tomorrow, 22 September, Saturday

    Time Temperature Precipitation Wind Pressure Humidity
    00:00 +8°C° 0 mm 10 mps 749 mmHg 74%
    01:00 +8°C° 0 mm 10 mps 750 mmHg 73%
    02:00 +8°C° 0 mm 9 mps 750 mmHg 73%
    03:00 +8°C° 0 mm 9 mps 751 mmHg 73%
    04:00 +8°C° 0 mm 9 mps 752 mmHg 73%
    05:00 +8°C° 0 mm 9 mps 752 mmHg 74%
    06:00 +9°C° 0 mm 8 mps 752 mmHg 75%
    07:00 +9°C° 0 mm 8 mps 753 mmHg 77%
    08:00 +10°C° 0.1 mm 9 mps 753 mmHg 73%
    09:00 +11°C° 0.1 mm 9 mps 753 mmHg 68%
    10:00 +12°C° 0.1 mm 10 mps 753 mmHg 64%
    11:00 +12°C° 0.2 mm 11 mps 753 mmHg 64%
    12:00 +12°C° 0.2 mm 11 mps 753 mmHg 63%
    13:00 +13°C° 0.2 mm 12 mps 753 mmHg 62%
    14:00 +12°C° 0.4 mm 12 mps 753 mmHg 65%
    15:00 +12°C° 0.4 mm 12 mps 753 mmHg 68%
    16:00 +12°C° 0.4 mm 12 mps 753 mmHg 71%
    17:00 +11°C° 0 mm 11 mps 754 mmHg 73%
    18:00 +9°C° 0 mm 10 mps 754 mmHg 75%
    19:00 +8°C° 0 mm 9 mps 755 mmHg 76%
    20:00 +9°C° 0 mm 8 mps 755 mmHg 77%
    21:00 +9°C° 0 mm 8 mps 756 mmHg 78%
    22:00 +7°C° 0 mm 8 mps 756 mmHg 78%
    23:00 +8°C° 0 mm 7 mps 756 mmHg 79%

    23 September, Sunday

    Time Temperature Precipitation Wind Pressure Humidity
    00:00 +8°C° 0 mm 7 mps 756 mmHg 79%
    01:00 +8°C° 0 mm 7 mps 756 mmHg 80%
    02:00 +8°C° 0 mm 6 mps 756 mmHg 80%
    03:00 +7°C° 0 mm 6 mps 756 mmHg 80%
    04:00 +7°C° 0 mm 6 mps 756 mmHg 80%
    05:00 +7°C° 0 mm 5 mps 756 mmHg 80%
    06:00 +7°C° 0 mm 5 mps 755 mmHg 80%
    07:00 +7°C° 0 mm 5 mps 755 mmHg 80%
    08:00 +10°C° 0 mm 4 mps 755 mmHg 74%
    09:00 +11°C° 0 mm 4 mps 755 mmHg 68%
    10:00 +12°C° 0 mm 4 mps 755 mmHg 62%
    11:00 +12°C° 0 mm 3 mps 754 mmHg 61%
    12:00 +12°C° 0 mm 3 mps 754 mmHg 60%
    13:00 +12°C° 0 mm 3 mps 753 mmHg 59%
    14:00 +12°C° 0 mm 3 mps 753 mmHg 61%
    15:00 +12°C° 0 mm 3 mps 753 mmHg 63%
    16:00 +12°C° 0 mm 3 mps 752 mmHg 64%
    17:00 +11°C° 0 mm 4 mps 752 mmHg 66%
    18:00 +9°C° 0 mm 5 mps 752 mmHg 68%
    19:00 +8°C° 0 mm 5 mps 752 mmHg 70%
    20:00 +8°C° 0 mm 6 mps 752 mmHg 68%
    21:00 +8°C° 0 mm 6 mps 752 mmHg 66%
    22:00 +8°C° 0 mm 6 mps 752 mmHg 65%
    23:00 +8°C° 0 mm 7 mps 752 mmHg 65%

    24 September, Monday

    Time Temperature Precipitation Wind Pressure Humidity
    00:00 +8°C° 0 mm 7 mps 753 mmHg 65%
    01:00 +7°C° 0 mm 8 mps 753 mmHg 65%
    02:00 +7°C° 0.2 mm 8 mps 754 mmHg 66%
    03:00 +7°C° 0.2 mm 8 mps 755 mmHg 68%
    04:00 +7°C° 0.2 mm 9 mps 756 mmHg 69%
    05:00 +6°C° 0.3 mm 8 mps 758 mmHg 70%
    06:00 +6°C° 0.3 mm 8 mps 759 mmHg 71%
    07:00 +6°C° 0.3 mm 7 mps 760 mmHg 72%
    08:00 +8°C° 0.2 mm 7 mps 761 mmHg 66%
    09:00 +9°C° 0.2 mm 7 mps 762 mmHg 61%
    10:00 +10°C° 0.2 mm 7 mps 763 mmHg 55%
    11:00 +11°C° 0.1 mm 7 mps 764 mmHg 52%
    12:00 +11°C° 0.1 mm 8 mps 764 mmHg 49%
    13:00 +12°C° 0.1 mm 9 mps 765 mmHg 47%
    14:00 +11°C° 0 mm 9 mps 765 mmHg 52%
    15:00 +11°C° 0 mm 8 mps 766 mmHg 57%
    16:00 +10°C° 0 mm 8 mps 766 mmHg 61%
    17:00 +9°C° 0 mm 8 mps 766 mmHg 66%
    18:00 +9°C° 0 mm 7 mps 766 mmHg 70%
    19:00 +8°C° 0 mm 7 mps 766 mmHg 74%
    20:00 +8°C° 0 mm 7 mps 767 mmHg 74%
    21:00 +6°C° 0 mm 7 mps 767 mmHg 74%
    22:00 +6°C° 0 mm 8 mps 767 mmHg 74%
    23:00 +6°C° 0 mm 7 mps 767 mmHg 75%

    25 September, Tuesday

    Time Temperature Precipitation Wind Pressure Humidity
    00:00 +6°C° 0 mm 7 mps 768 mmHg 76%
    01:00 +6°C° 0 mm 7 mps 768 mmHg 78%
    02:00 +7°C° 0 mm 8 mps 768 mmHg 78%
    03:00 +7°C° 0 mm 8 mps 768 mmHg 79%
    04:00 +8°C° 0 mm 9 mps 767 mmHg 79%
    05:00 +8°C° 0.1 mm 9 mps 767 mmHg 79%
    06:00 +9°C° 0.1 mm 10 mps 767 mmHg 79%
    07:00 +9°C° 0.1 mm 10 mps 767 mmHg 80%
    08:00 +11°C° 0.1 mm 10 mps 767 mmHg 75%
    09:00 +12°C° 0.1 mm 11 mps 768 mmHg 71%
    10:00 +13°C° 0.1 mm 11 mps 768 mmHg 67%
    11:00 +13°C° 0.2 mm 10 mps 768 mmHg 69%
    12:00 +13°C° 0.2 mm 10 mps 768 mmHg 71%
    13:00 +13°C° 0.2 mm 10 mps 769 mmHg 73%
    14:00 +13°C° 0.1 mm 10 mps 769 mmHg 72%
    15:00 +13°C° 0.1 mm 10 mps 769 mmHg 71%
    16:00 +13°C° 0.1 mm 10 mps 768 mmHg 71%
    17:00 +12°C° 0 mm 9 mps 769 mmHg 74%
    18:00 +11°C° 0 mm 8 mps 769 mmHg 77%
    19:00 +10°C° 0 mm 7 mps 769 mmHg 80%
    20:00 +10°C° 0 mm 7 mps 769 mmHg 81%
    21:00 +9°C° 0 mm 7 mps 769 mmHg 82%
    22:00 +9°C° 0 mm 7 mps 769 mmHg 83%
    23:00 +9°C° 0 mm 6 mps 769 mmHg 85%
    Show more